Location: Antioch Church
(34.9543°N, 88.5145°W)
Time: 05:18:28
(UTC+00:00)

Daily predictions for brighter satellites

Satellite Brightness Start Highest point End
(mag) Time Altitude Azimuth Time Altitude Azimuth Time Altitude Azimuth
YAOGAN 1 3.0 00:01:03 10° SE 00:05:02 38° ENE 00:09:03 10° N
Abrixas rocket 2.4 00:04:54 10° SSW 00:07:47 44° SE 00:07:55 43° SE
Okean 1-7 3.3 00:04:05 10° SSW 00:08:22 68° W 00:12:42 10° N
Cosmos 614 Rocket 4.1 00:04:27 10° SSW 00:09:33 76° WNW 00:14:34 10° NNE
Cosmos 1900 4.5 00:04:45 10° NNW 00:09:37 74° WSW 00:14:28 10° SSE
SL-16 R/B 2.5 00:07:23 10° SSW 00:13:00 68° WNW 00:18:37 10° NNE
Delta 2 Rocket 3.7 00:10:54 10° WSW 00:15:50 65° SSE 00:17:19 40° E
BREEZE-M DEB (TANK) 4.0 00:16:13 10° NW 00:18:15 16° N 00:18:15 16° N
CZ-4 R/B 4.3 00:14:34 10° SSE 00:18:43 85° E 00:22:54 10° N
Cosmos 1603 4.3 00:14:47 10° SSE 00:19:53 35° ESE 00:20:29 34° E
Lacrosse 5 2.7 00:15:31 10° S 00:19:55 30° ESE 00:20:10 30° ESE
Envisat 3.6 00:15:33 10° S 00:20:31 57° W 00:25:32 10° NNW
NOSS 7 (H) 4.1 00:16:57 10° SSW 00:20:43 82° ESE 00:20:57 74° ENE
Cosmos 292 Rocket 4.2 00:17:00 10° NNW 00:21:49 65° WSW 00:26:36 10° S
CZ-4C R/B 3.0 00:19:05 10° SSE 00:22:18 26° SE 00:22:18 26° SE
Cosmos 2237 Rocket 4.5 00:19:43 10° WSW 00:23:49 20° WNW 00:27:56 10° N
Cosmos 1140 Rocket 3.5 00:22:16 10° SSW 00:27:22 81° WNW 00:30:43 22° NNE
Meteor 1-19 Rocket 4.0 00:22:59 10° S 00:28:32 77° E 00:32:35 19° NNE
Meteor 2-13 Rocket 4.3 00:24:16 10° S 00:30:14 64° E 00:34:39 19° NNE
Cosmos 407 Rocket 4.3 00:26:22 10° SW 00:31:20 49° WNW 00:36:06 12° N
Meteor 2-4 Rocket 3.9 00:25:40 10° SSE 00:31:21 51° E 00:32:53 41° NE
Cosmos 1441 Rocket 4.4 00:32:20 10° NNW 00:35:56 41° W 00:39:27 10° SSW
S3M 4.0 00:30:26 10° N 00:36:30 55° E 00:42:27 10° SSE
Cosmos 2266 Rocket 4.1 00:34:18 10° SSE 00:40:29 53° E 00:41:45 46° NE
Cosmos 921 Rocket 3.4 00:40:14 10° NNW 00:44:29 61° WSW 00:48:47 10° S
Cosmos 1553 Rocket 4.0 00:43:01 10° N 00:49:25 86° W 00:55:50 10° S
Cosmos 2221 Rocket 4.2 00:46:42 10° SSW 00:51:06 55° W 00:52:46 34° NNW
ADEOS Rocket 4.1 00:55:28 25° SSE 00:55:28 25° SSE 00:57:53 10° S
Cosmos 1943 Rocket 4.0 00:48:11 10° N 00:49:26 16° N 00:49:26 16° N
CSL-04 Rocket 3.9 00:49:05 10° S 00:54:18 66° WSW 00:59:34 10° NNW
Okean 3 4.1 00:53:45 10° SSW 00:57:20 54° WSW 00:57:20 54° WSW
USA 267 4.4 00:56:53 10° SSE 01:02:57 41° SW 01:09:03 10° WNW
Cosmos 489 Rocket 4.4 00:58:53 10° NNW 01:05:16 87° ENE 01:07:29 44° SSE
OAO 2 Rocket 3.7 01:01:36 10° W 01:05:56 62° WSW 01:05:56 62° WSW
CZ-4 R/B 3.6 01:04:27 10° SSW 01:07:39 24° W 01:10:49 10° NW
Cosmos 2297 4.5 01:02:21 10° NNW 01:07:49 50° WSW 01:13:13 10° S
ISS -0.4 01:17:11 10° WSW 01:18:07 12° WSW 01:18:07 12° WSW
CZ-3B R/B 3.4 01:24:38 10° SW 01:29:42 35° S 01:29:42 35° S
Centaur D-1AR AC-36 4.0 01:22:29 10° WSW 01:31:11 25° SSW 01:31:44 25° S
H-II Stage 2 3.9 01:26:15 10° W 01:40:25 43° SSW 01:40:25 43° SSW
Lacrosse 5 4.4 01:58:02 10° WSW 01:59:25 17° WSW 01:59:25 17° WSW
CZ-3C R/B 4.1 01:14:45 10° WSW 02:15:27 40° SSW 02:16:37 39° S
Centaur D-1A AC-31 3.8 02:10:12 10° WSW 02:50:17 13° ESE 03:00:40 10° ESE
Centaur D-1A AC-31 3.8 02:10:12 10° WSW 02:50:18 13° ESE 03:00:40 10° ESE
Centaur D-1A AC-31 3.8 02:10:11 10° WSW 02:50:17 13° ESE 03:00:40 10° ESE
FALCON 9 R/B 3.9 09:20:06 44° E 09:20:06 44° E 09:30:12 10° E
USA 234 4.5 09:30:01 10° NE 09:33:27 34° NE 09:33:27 34° NE
CZ-4C R/B 3.7 09:37:12 46° NE 09:37:46 46° NE 09:45:41 10° SE
Cosmos 2263 Rocket 3.9 09:45:36 23° SE 09:47:34 29° ESE 09:52:18 10° NE
Centaur AC-42 4.4 10:09:47 21° SSW 10:13:17 31° SSE 10:35:00 10° E
Cosmos 1420 Rocket 4.3 10:24:53 55° SSE 10:25:45 65° ESE 10:30:54 10° NNE
Cosmos 614 Rocket 4.4 10:39:33 46° SSW 10:39:33 46° SSW 10:43:14 10° S
Meteor 1-25 Rocket 4.4 10:38:39 10° S 10:44:11 71° E 10:49:49 10° NNE
Lacrosse 5 4.0 10:47:42 13° SSW 10:47:42 13° SSW 10:48:31 10° SSW
SL-16 R/B 3.6 10:56:50 23° SW 10:56:50 23° SW 10:59:27 10° SSW
Cosmos 1452 Rocket 3.4 10:49:30 10° SSW 10:54:47 86° WNW 11:00:05 10° NNE
COSMO-SKYMED 1 3.5 10:51:17 10° SSE 10:55:27 48° ENE 10:59:06 13° N
Cosmos 1140 Rocket 3.3 10:56:01 53° NW 10:57:07 70° WSW 11:02:18 10° S
Cosmos 1092 Rocket 4.0 10:51:04 10° N 10:57:15 80° E 11:03:22 10° S
SJ-12 4.3 10:55:36 10° NNE 10:59:41 65° E 11:03:44 10° S
Cosmos 1603 3.8 10:58:02 24° NNW 11:01:40 78° ENE 11:07:21 10° SSE
Cosmos 407 Rocket 4.0 11:02:46 40° WSW 11:02:46 40° WSW 11:07:15 10° S
Cosmos 1602 3.9 11:02:08 10° S 11:05:55 70° E 11:09:43 10° NNE
Cosmos 1703 Rocket 3.4 11:09:19 26° NNW 11:11:48 77° W 11:16:09 10° S
Okean 1 3.9 11:08:20 10° N 11:12:10 55° E 11:16:04 10° SSE
STARLINK 1027 4.4 11:12:40 25° NNE 11:13:00 26° NE 11:15:31 10° E
STARLINK 1028 4.4 11:12:59 25° NNE 11:13:20 26° NE 11:15:51 10° E
STARLINK 1021 4.4 11:13:05 25° NNE 11:13:25 26° NE 11:15:57 10° E
STARLINK 1019 4.4 11:13:24 26° NNE 11:13:47 26° NE 11:16:22 10° E
STARLINK 1012 4.4 11:13:38 25° NNE 11:14:00 26° NE 11:16:32 10° E
STARLINK 1010 4.3 11:13:53 26° NNE 11:14:16 26° NE 11:16:49 10° E
STARLINK 1026 4.3 11:14:05 26° NNE 11:14:28 26° NE 11:17:00 10° E
STARLINK 1013 4.3 11:14:17 26° NNE 11:14:40 27° NE 11:17:13 10° E
STARLINK 1009 4.3 11:14:32 26° NNE 11:14:56 27° NE 11:17:29 10° E
STARLINK 1015 4.3 11:14:42 26° NNE 11:15:07 27° NE 11:17:41 10° E
STARLINK 1016 4.3 11:14:57 26° NNE 11:15:22 27° NE 11:17:57 10° E
STARLINK 1008 4.3 11:15:10 26° NNE 11:15:36 27° NE 11:18:10 10° E
STARLINK 1014 4.3 11:15:23 26° NNE 11:15:50 27° NE 11:18:24 10° E
STARLINK 1025 4.3 11:15:36 26° NNE 11:16:03 27° NE 11:18:37 10° E
STARLINK 1017 4.3 11:15:48 26° NNE 11:16:16 28° NE 11:18:51 10° E
STARLINK 1023 4.3 11:16:06 26° NNE 11:16:34 28° NE 11:19:09 10° E
STARLINK 1007 4.2 11:16:14 26° NNE 11:16:42 28° NE 11:19:18 10° E
STARLINK 1048 4.2 11:16:16 26° NNE 11:16:45 28° NE 11:19:19 10° E
STARLINK 1049 4.2 11:16:41 26° NNE 11:17:10 28° NE 11:19:46 10° ESE
Okean O Rocket 2.2 11:12:58 10° NNE 11:17:18 57° E 11:21:38 10° S
STARLINK 1034 4.2 11:16:47 27° NNE 11:17:21 29° NE 11:19:59 10° ESE
STARLINK 1051 4.2 11:16:53 27° NNE 11:17:24 28° NE 11:20:00 10° ESE
STARLINK 1037 4.2 11:17:05 27° NNE 11:17:36 28° NE 11:20:13 10° ESE
STARLINK 1052 4.2 11:17:10 27° NNE 11:17:42 29° NE 11:20:19 10° ESE
STARLINK 1059 4.2 11:17:19 27° NNE 11:17:50 29° NE 11:20:27 10° ESE
STARLINK 1057 4.2 11:17:33 27° NNE 11:18:05 29° NE 11:20:42 10° ESE
STARLINK 1068 4.2 11:17:59 27° NNE 11:18:32 29° NE 11:21:10 10° ESE
STARLINK 1029 4.2 11:18:23 27° NNE 11:18:57 29° NE 11:21:35 10° ESE
STARLINK 1060 4.2 11:18:24 27° NNE 11:18:58 29° NE 11:21:35 10° ESE
USA 234 4.1 11:13:37 10° NNE 11:19:04 29° NNW 11:20:49 26° WNW
STARLINK 1030 4.2 11:18:39 27° NNE 11:19:16 30° NE 11:21:56 10° ESE
STARLINK 1020 4.2 11:18:51 27° NNE 11:19:27 30° NE 11:22:05 10° ESE
SKYMED 3 4.5 11:15:13 10° SSE 11:19:33 86° WSW 11:23:31 12° NNW
STARLINK 1040 4.0 11:19:14 29° NNE 11:19:48 32° NE 11:22:30 10° ESE
STARLINK 1033 4.1 11:19:31 27° NNE 11:20:08 30° NE 11:22:47 10° ESE
STARLINK 1031 4.1 11:19:41 27° NNE 11:20:19 30° NE 11:22:57 10° ESE
STARLINK 1024 4.1 11:19:53 27° NNE 11:20:33 31° NE 11:23:14 10° ESE
STARLINK 1035 4.1 11:20:08 27° NNE 11:20:47 31° NE 11:23:26 10° ESE
STARLINK 1032 4.1 11:20:21 27° NNE 11:21:01 31° NE 11:23:40 10° ESE
STARLINK 1011 4.1 11:20:32 28° N 11:21:14 31° NE 11:23:55 10° ESE
STARLINK 1036 4.1 11:20:47 28° N 11:21:27 31° NE 11:24:07 10° ESE
STARLINK 1047 4.1 11:21:13 28° N 11:21:55 32° NE 11:24:34 10° ESE
Cosmos 1869 Rocket 3.5 11:18:55 10° SSW 11:23:09 59° W 11:27:26 10° N
Starlink Launch 2 leader 2.7 11:25:08 55° NE 11:25:10 55° NE 11:27:33 10° ESE
CZ-4C R/B 3.5 11:22:27 25° WNW 11:26:25 40° WSW 11:34:04 10° S
Cosmos 1484 Rocket 3.5 11:27:27 32° W 11:27:27 32° W 11:30:16 10° SW
STARLINK 1064 4.4 11:25:36 22° NNW 11:27:18 35° NE 11:30:35 10° ESE
Starlink Launch 2 trailer 2.4 11:28:41 61° NNE 11:28:51 64° NE 11:31:16 10° SE
STARLINK 1041 4.3 11:28:42 21° NNW 11:30:31 37° NE 11:33:51 10° ESE
Cosmos 2263 Rocket 2.8 11:27:41 16° WSW 11:31:20 32° WNW 11:36:18 10° N
STARLINK 1038 4.2 11:31:48 21° NNW 11:33:46 40° NE 11:37:08 10° ESE
STARLINK 1046 4.1 11:34:54 20° NNW 11:37:00 43° NE 11:40:24 10° ESE
Cosmos 1428 Rocket 4.5 11:30:53 10° N 11:37:12 79° W 11:43:29 10° S
STARLINK 1039 4.0 11:37:36 20° NNW 11:39:46 46° NE 11:43:09 10° ESE
FALCON 9 DEB 1.9 11:39:48 54° WNW 11:40:10 75° SW 11:42:29 10° SE
STARLINK 1044 3.0 11:39:39 27° NNW 11:40:59 58° NE 11:43:47 10° SE
STARLINK 1045 3.9 11:39:05 19° NNW 11:41:20 48° NE 11:44:45 10° ESE
CZ-4B DEB 4.3 11:36:35 10° N 11:41:57 53° WNW 11:47:18 10° SSW
Cosmos 1331 Rocket 4.1 11:36:49 10° S 11:41:57 77° ESE 11:47:07 10° NNE
SKYMED 2 3.9 11:39:26 10° S 11:43:33 43° W 11:47:42 10° NNW
Cosmos 1461 4.0 11:42:33 22° WNW 11:44:13 29° WSW 11:48:04 10° S
GEOS 3 Rocket 3.6 11:40:07 10° SSE 11:45:10 69° WSW 11:49:55 12° NW
Helios 1A Rocket 2.8 11:41:57 10° N 11:45:57 67° WNW 11:49:56 10° SSW
Cosmos 371 Rocket 3.2 11:41:17 10° SSW 11:46:06 86° WNW 11:50:58 10° NNE
Cosmos 44 3.4 11:43:44 10° SW 11:48:23 46° WNW 11:52:49 10° NNE
SMAP 4.4 11:44:23 10° NNE 11:48:49 43° E 11:53:14 10° S
Geosat 4.1 11:48:10 10° S 11:53:06 56° WSW 11:58:02 10° NNW
Okean 1-7 4.0 11:52:30 11° NW 11:55:56 27° W 11:59:36 10° SSW
